EW9274 Weather Reports


Display with metric or nautical units.
time (UTC)temp
F
wind
direction
speed
MPH
gust
MPH
rain 1hr
in
rain 24hr
in
rain mn
in
humidity
%
barometer
mb
20260901234007 80 9 1.0 5.0 0.00 0.08 0.08 82 1013.7
20260901233513 79 344 2.0 5.0 0.00 0.08 0.08 83 1013.7
20260901233008 79 339 0.0 5.0 0.00 0.08 0.08 83 1013.6
20260901232510 79 352 2.0 6.0 0.00 0.08 0.08 83 1013.7
20260901232014 80 292 3.0 6.0 0.00 0.08 0.08 83 1013.6
20260901231513 79 254 2.0 3.0 0.00 0.08 0.08 84 1013.5
20260901231008 79 269 2.0 2.0 0.00 0.08 0.08 85 1013.2
20260901230513 79 230 1.0 2.0 0.00 0.08 0.08 85 1013.0
20260901230011 78 259 0.0 3.0 0.00 0.08 0.08 86 1012.9
20260901225510 78 166 1.0 3.0 0.00 0.08 0.08 85 1013.0
20260901225003 78 136 1.0 2.0 0.00 0.08 0.08 86 1013.2
20260901224514 78 169 0.0 2.0 0.04 0.08 0.08 86 1013.5
20260901224009 79 259 0.0 2.0 0.05 0.08 0.08 86 1013.8
20260901223504 78 180 0.0 3.0 0.05 0.08 0.08 85 1013.9
20260901223029 78 136 1.0 3.0 0.05 0.08 0.08 85 1013.9
20260901222514 78 148 0.0 2.0 0.05 0.08 0.08 86 1014.3
20260901222003 78 146 0.0 2.0 0.05 0.08 0.08 85 1014.2
20260901221523 78 152 0.0 2.0 0.05 0.08 0.08 85 1014.2
20260901221013 78 134 1.0 2.0 0.05 0.08 0.08 86 1014.2
20260901220503 78 184 0.0 2.0 0.06 0.08 0.08 87 1014.2
20260901220019 77 167 0.0 2.0 0.06 0.08 0.08 84 1014.0
20260901215515 78 161 0.0 2.0 0.06 0.08 0.08 85 1014.0
20260901215008 78 250 0.0 2.0 0.06 0.08 0.08 82 1014.1
20260901214520 78 157 0.0 2.0 0.02 0.04 0.04 80 1014.0
20260901214014 78 201 0.0 3.0 0.01 0.03 0.03 80 1014.0
20260901213506 79 159 1.0 6.0 0.01 0.03 0.03 78 1014.1
20260901213023 79 215 1.0 6.0 0.01 0.03 0.03 76 1014.2
20260901212513 79 266 0.0 4.0 0.01 0.03 0.03 78 1014.1
20260901212005 78 228 0.0 4.0 0.01 0.03 0.03 79 1014.3
20260901211531 78 225 2.0 9.0 0.01 0.03 0.03 79 1014.3
20260901211014 79 209 2.0 10.0 0.01 0.03 0.03 74 1014.3
20260901210509 79 213 4.0 10.0 0.00 0.02 0.02 74 1014.1
20260901210025 79 250 2.0 9.0 0.00 0.02 0.02 77 1014.3
20260901205514 80 236 5.0 9.0 0.01 0.02 0.02 77 1014.3
20260901205009 80 224 2.0 9.0 0.01 0.02 0.02 77 1014.2
20260901204540 80 254 3.0 9.0 0.01 0.02 0.02 79 1014.1
20260901204017 80 259 4.0 9.0 0.01 0.02 0.02 81 1014.0
20260901203507 80 240 4.0 8.0 0.02 0.02 0.02 85 1014.2
20260901203028 80 215 2.0 8.0 0.02 0.02 0.02 85 1014.2
20260901202516 81 168 3.0 8.0 0.02 0.02 0.02 85 1014.2
20260901202015 81 325 3.0 5.0 0.02 0.02 0.02 84 1014.3
20260901201526 81 240 2.0 4.0 0.02 0.02 0.02 84 1014.3
20260901201016 81 194 0.0 4.0 0.02 0.02 0.02 83 1014.2
20260901200500 81 225 1.0 11.0 0.02 0.02 0.02 83 1014.3
20260901200011 82 142 2.0 11.0 0.02 0.02 0.02 81 1014.5
20260901195503 82 205 3.0 11.0 0.01 0.01 0.01 81 1014.9
20260901195002 83 248 3.0 9.0 0.01 0.01 0.01 81 1014.7
20260901194504 83 287 3.0 6.0 0.01 0.01 0.01 79 1014.3
20260901194017 84 267 1.0 5.0 0.01 0.01 0.01 77 1014.1
20260901193512 86 157 2.0 4.0 0.00 0.00 0.00 73 1014.2
20260901193004 85 234 2.0 9.0 0.00 0.00 0.00 72 1014.2
20260901192504 85 215 3.0 10.0 0.00 0.00 0.00 72 1014.4
20260901192002 85 122 3.0 12.0 0.00 0.00 0.00 71 1014.5
20260901191507 86 230 7.0 12.0 0.00 0.00 0.00 71 1014.7
20260901191013 86 222 6.0 12.0 0.00 0.00 0.00 69 1014.7
20260901190504 87 203 3.0 11.0 0.00 0.00 0.00 69 1014.6
20260901190018 88 261 3.0 10.0 0.00 0.00 0.00 68 1014.5
20260901185509 88 238 2.0 11.0 0.00 0.00 0.00 70 1014.3
20260901185013 88 219 5.0 11.0 0.00 0.00 0.00 71 1014.4
20260901184533 87 224 1.0 9.0 0.00 0.00 0.00 71 1014.2
20260901184008 87 179 2.0 12.0 0.00 0.00 0.00 71 1014.3
20260901183502 88 200 3.0 12.0 0.00 0.00 0.00 70 1014.4
20260901183030 89 140 5.0 12.0 0.00 0.00 0.00 68 1014.4
20260901182508 89 219 2.0 7.0 0.00 0.00 0.00 70 1014.4
20260901182016 88 202 3.0 8.0 0.00 0.00 0.00 70 1014.4
20260901181510 88 39 3.0 8.0 0.00 0.00 0.00 69 1014.4
20260901181010 90 238 2.0 9.0 0.00 0.00 0.00 66 1014.4
20260901180503 90 157 4.0 9.0 0.00 0.00 0.00 65 1014.2
20260901180012 90 144 2.0 7.0 0.00 0.00 0.00 67 1014.3
20260901175512 89 268 2.0 10.0 0.00 0.00 0.00 69 1014.3
20260901175002 90 251 4.0 10.0 0.00 0.00 0.00 66 1014.4
20260901174511 90 164 3.0 6.0 0.00 0.00 0.00 67 1014.4
20260901174016 89 157 0.0 6.0 0.00 0.00 0.00 68 1014.5
20260901173504 89 153 2.0 8.0 0.00 0.00 0.00 66 1014.4
20260901173014 88 155 3.0 8.0 0.00 0.00 0.00 70 1014.6
20260901172513 88 221 3.0 13.0 0.00 0.00 0.00 69 1014.8
20260901172003 88 153 2.0 13.0 0.00 0.00 0.00 71 1014.8
20260901171516 87 250 2.0 9.0 0.00 0.00 0.00 73 1014.8
20260901171002 87 210 4.0 9.0 0.00 0.00 0.00 72 1015.0
20260901170504 87 257 4.0 8.0 0.00 0.00 0.00 73 1014.9
20260901170017 87 223 3.0 9.0 0.00 0.00 0.00 73 1014.9
20260901165513 88 200 4.0 9.0 0.00 0.00 0.00 72 1014.8
20260901165004 87 269 2.0 5.0 0.00 0.00 0.00 72 1014.7
20260901164520 87 194 2.0 4.0 0.00 0.00 0.00 71 1014.9
20260901164003 88 129 0.0 7.0 0.00 0.00 0.00 70 1014.8
20260901163515 87 221 1.0 8.0 0.00 0.00 0.00 73 1014.8
20260901163024 85 242 2.0 8.0 0.00 0.00 0.00 76 1015.0
20260901162503 84 281 4.0 8.0 0.00 0.00 0.00 77 1014.9
20260901162003 85 178 0.0 3.0 0.00 0.00 0.00 76 1014.7
20260901161523 85 208 1.0 7.0 0.00 0.00 0.00 78 1014.7
20260901161004 83 284 2.0 7.0 0.00 0.00 0.00 78 1015.0
20260901160507 84 175 1.0 4.0 0.00 0.00 0.00 78 1015.1
20260901160027 84 94 1.0 4.0 0.00 0.00 0.00 79 1015.3
20260901155515 83 201 1.0 4.0 0.00 0.00 0.00 80 1015.3
20260901155010 83 93 2.0 4.0 0.00 0.00 0.00 80 1015.4
20260901154526 83 254 1.0 4.0 0.00 0.00 0.00 80 1015.2
20260901154015 83 259 0.0 4.0 0.00 0.00 0.00 80 1015.0
20260901153507 83 249 2.0 3.0 0.00 0.00 0.00 79 1015.0
20260901153037 83 319 0.0 2.0 0.00 0.00 0.00 79 1014.9
20260901152504 82 297 0.0 3.0 0.00 0.00 0.00 80 1015.0
20260901152007 82 176 1.0 4.0 0.00 0.00 0.00 79 1015.1
20260901151528 83 227 1.0 4.0 0.00 0.00 0.00 78 1015.1
20260901151017 83 234 0.0 3.0 0.00 0.00 0.00 79 1014.9
20260901150512 84 175 1.0 3.0 0.00 0.00 0.00 76 1014.9
20260901150033 84 147 1.0 3.0 0.00 0.00 0.00 76 1014.9
20260901145519 83 256 1.0 3.0 0.00 0.00 0.00 78 1014.9
20260901145011 82 336 0.0 3.0 0.00 0.00 0.00 79 1014.9
20260901144537 83 236 1.0 3.0 0.00 0.00 0.00 78 1015.0
20260901144007 83 242 1.0 3.0 0.00 0.00 0.00 78 1015.0
20260901143514 81 172 0.0 4.0 0.00 0.00 0.00 82 1015.0
20260901143031 81 173 2.0 4.0 0.00 0.00 0.00 81 1015.1
20260901142508 81 249 2.0 5.0 0.00 0.00 0.00 80 1015.0
20260901142016 81 138 1.0 5.0 0.00 0.00 0.00 79 1015.0
20260901141504 82 134 1.0 5.0 0.00 0.00 0.00 78 1015.1
20260901141008 82 148 1.0 5.0 0.00 0.00 0.00 80 1015.1
20260901140517 81 184 0.0 3.0 0.00 0.00 0.00 81 1015.2
20260901140007 80 206 1.0 4.0 0.00 0.00 0.00 83 1015.3
20260901135509 79 209 0.0 4.0 0.00 0.00 0.00 83 1015.2
20260901135020 79 191 1.0 5.0 0.00 0.00 0.00 83 1015.0
20260901134530 79 248 1.0 5.0 0.00 0.00 0.00 83 1015.1
20260901134008 79 236 1.0 4.0 0.00 0.00 0.00 83 1015.1
20260901133519 78 302 2.0 4.0 0.00 0.00 0.00 83 1015.2
20260901133013 78 234 1.0 3.0 0.00 0.00 0.00 84 1015.2
20260901132510 78 215 1.0 3.0 0.00 0.00 0.00 84 1015.2
20260901132016 78 195 0.0 2.0 0.00 0.00 0.00 84 1015.3
20260901131511 78 184 0.0 2.0 0.00 0.00 0.00 85 1015.3
20260901131011 77 215 0.0 2.0 0.00 0.00 0.00 85 1015.4
20260901130520 77 138 0.0 2.0 0.00 0.00 0.00 87 1015.3
20260901130013 77 212 0.0 2.0 0.00 0.00 0.00 87 1015.3
20260901125514 76 169 0.0 2.0 0.00 0.00 0.00 87 1015.3
20260901125017 76 265 0.0 2.0 0.00 0.00 0.00 88 1015.2
20260901124514 76 166 0.0 2.0 0.00 0.00 0.00 88 1015.2
20260901124011 76 199 0.0 2.0 0.00 0.00 0.00 88 1015.3
20260901123517 76 213 0.0 2.0 0.00 0.00 0.00 89 1015.2
20260901123015 75 209 0.0 2.0 0.00 0.00 0.00 89 1015.3
20260901122518 75 219 0.0 2.0 0.00 0.00 0.00 89 1015.2
20260901122016 75 203 0.0 2.0 0.00 0.00 0.00 89 1015.1
20260901121520 74 239 0.0 2.0 0.00 0.00 0.00 90 1015.1
20260901121014 74 229 0.0 1.0 0.00 0.00 0.00 90 1015.0
20260901120519 74 206 0.0 0.0 0.00 0.00 0.00 90 1015.0
20260901120021 74 188 0.0 2.0 0.00 0.00 0.00 91 1014.9
20260901115515 73 200 0.0 2.0 0.00 0.00 0.00 91 1014.8
20260901115018 73 153 0.0 2.0 0.00 0.00 0.00 92 1014.7
20260901114520 73 196 0.0 0.0 0.00 0.00 0.00 92 1014.6
20260901114013 73 225 0.0 1.0 0.00 0.00 0.00 92 1014.5
20260901113515 72 229 0.0 1.0 0.00 0.00 0.00 92 1014.5
20260901113024 72 209 0.0 2.0 0.00 0.00 0.00 91 1014.4
20260901112515 72 197 0.0 2.0 0.00 0.00 0.00 91 1014.3
20260901112006 73 191 0.0 2.0 0.00 0.00 0.00 92 1014.3
20260901111524 72 198 0.0 0.0 0.00 0.00 0.00 92 1014.2
20260901111015 72 221 0.0 2.0 0.00 0.00 0.00 92 1014.1
20260901110507 72 225 0.0 2.0 0.00 0.01 0.00 91 1014.2
20260901110037 72 196 0.0 2.0 0.00 0.01 0.00 92 1014.1
20260901105503 72 209 0.0 2.0 0.00 0.01 0.00 92 1014.0
20260901105010 72 215 0.0 2.0 0.00 0.01 0.00 92 1014.1
20260901104525 72 222 0.0 2.0 0.00 0.01 0.00 91 1014.1
20260901104003 72 239 0.0 2.0 0.00 0.01 0.00 91 1014.2
20260901103509 72 224 0.0 2.0 0.00 0.01 0.00 91 1014.2
20260901103032 72 252 0.0 2.0 0.00 0.01 0.00 91 1014.2
20260901102505 72 230 0.0 2.0 0.00 0.03 0.00 91 1014.1
20260901102008 72 236 0.0 2.0 0.00 0.03 0.00 91 1014.1
20260901101529 73 225 0.0 2.0 0.00 0.04 0.00 91 1014.1
20260901101006 73 193 0.0 2.0 0.00 0.04 0.00 90 1014.0
20260901100511 73 224 0.0 2.0 0.00 0.06 0.00 91 1014.1
20260901100033 73 199 0.0 2.0 0.00 0.06 0.00 91 1014.1
20260901095505 73 174 0.0 2.0 0.00 0.06 0.00 90 1014.1
20260901095011 73 186 0.0 2.0 0.00 0.06 0.00 90 1014.1
20260901094531 73 205 0.0 2.0 0.00 0.06 0.00 91 1014.1
20260901094007 73 242 0.0 2.0 0.00 0.10 0.00 91 1014.0
20260901093522 73 236 0.0 3.0 0.00 0.17 0.00 92 1014.0
20260901093030 72 260 1.0 2.0 0.00 0.18 0.00 92 1014.1
20260901092506 72 182 0.0 2.0 0.00 0.18 0.00 91 1014.1
20260901092013 72 229 1.0 2.0 0.00 0.18 0.00 91 1014.2
20260901091549 72 215 0.0 2.0 0.00 0.18 0.00 91 1014.2
20260901091005 72 225 0.0 2.0 0.00 0.18 0.00 91 1014.1
20260901090514 72 212 0.0 2.0 0.00 0.18 0.00 91 1014.1
20260901090032 72 213 0.0 2.0 0.00 0.18 0.00 91 1014.1
20260901085512 72 221 0.0 2.0 0.00 0.18 0.00 91 1014.0
20260901085015 72 221 0.0 2.0 0.00 0.18 0.00 91 1014.1
20260901084534 72 221 0.0 2.0 0.00 0.18 0.00 91 1014.1
20260901084019 72 221 0.0 2.0 0.00 0.18 0.00 91 1014.1
20260901083514 72 218 1.0 2.0 0.00 0.18 0.00 91 1014.1
20260901083013 72 237 1.0 2.0 0.00 0.18 0.00 91 1014.1
20260901082509 72 225 1.0 2.0 0.00 0.18 0.00 91 1014.0
20260901082014 72 233 0.0 2.0 0.00 0.18 0.00 91 1014.0
20260901081513 72 232 1.0 1.0 0.00 0.18 0.00 91 1013.9
20260901081012 72 217 0.0 2.0 0.00 0.18 0.00 91 1013.9
20260901080516 72 231 0.0 2.0 0.00 0.18 0.00 91 1013.9
20260901080015 72 228 0.0 2.0 0.00 0.18 0.00 91 1013.9
20260901075512 72 223 1.0 2.0 0.00 0.18 0.00 91 1014.0
20260901075017 72 223 1.0 2.0 0.00 0.18 0.00 91 1014.0
20260901074515 72 225 1.0 1.0 0.00 0.18 0.00 91 1014.0
20260901074012 73 229 1.0 2.0 0.00 0.18 0.00 91 1014.0
20260901073515 73 219 0.0 2.0 0.00 0.18 0.00 91 1013.9
20260901073022 73 226 1.0 2.0 0.00 0.18 0.00 91 1013.9
20260901072512 72 232 1.0 2.0 0.00 0.18 0.00 91 1013.8
20260901072017 73 228 0.0 2.0 0.00 0.18 0.00 91 1013.8
20260901071516 73 225 0.0 2.0 0.00 0.18 0.00 91 1013.9
20260901071016 73 223 0.0 2.0 0.00 0.18 0.00 91 1013.9
20260901070516 73 222 0.0 2.0 0.00 0.18 0.00 91 1013.9
20260901070027 73 228 0.0 2.0 0.00 0.18 0.00 91 1013.9
20260901065515 73 232 0.0 2.0 0.00 0.18 0.00 91 1013.9
20260901065015 73 221 0.0 2.0 0.00 0.18 0.00 91 1013.9
20260901064520 73 228 0.0 1.0 0.00 0.18 0.00 91 1013.9
20260901064012 73 215 1.0 2.0 0.00 0.18 0.00 91 1013.9
20260901063519 73 230 1.0 2.0 0.00 0.18 0.00 91 1013.9
20260901063023 73 233 1.0 2.0 0.00 0.18 0.00 91 1013.8
20260901062516 73 229 0.0 2.0 0.00 0.18 0.00 91 1013.8
20260901062016 73 225 0.0 2.0 0.00 0.18 0.00 91 1013.9
20260901061526 73 223 0.0 2.0 0.00 0.18 0.00 91 1013.8
20260901061014 73 221 0.0 2.0 0.00 0.18 0.00 91 1013.7
20260901060516 73 221 1.0 2.0 0.00 0.18 0.00 91 1013.8
20260901060024 73 224 0.0 2.0 0.00 0.18 0.00 91 1013.8
20260901055517 73 233 0.0 2.0 0.00 0.18 0.00 91 1013.7
20260901055017 73 222 0.0 2.0 0.00 0.18 0.00 91 1013.7
20260901054527 73 225 0.0 2.0 0.00 0.18 0.00 91 1013.7
20260901054015 73 208 0.0 2.0 0.00 0.18 0.00 91 1013.7
20260901053507 73 219 0.0 2.0 0.00 0.18 0.00 91 1013.7
20260901053030 74 213 0.0 2.0 0.00 0.18 0.00 91 1013.8
20260901052517 74 207 0.0 2.0 0.00 0.18 0.00 90 1013.8
20260901052010 74 221 0.0 2.0 0.00 0.18 0.00 90 1013.8
20260901051530 74 218 1.0 2.0 0.00 0.18 0.00 90 1013.8
20260901051016 74 221 0.0 2.0 0.00 0.18 0.00 90 1013.8
20260901050510 74 215 0.0 2.0 0.00 0.18 0.00 90 1013.9
20260901050030 74 223 0.0 2.0 0.00 0.18 0.00 90 1013.9
20260901045518 74 230 0.0 2.0 0.00 0.18 0.18 90 1013.8
20260901045011 74 217 0.0 2.0 0.00 0.18 0.18 90 1013.8
20260901044531 74 209 0.0 2.0 0.00 0.18 0.18 89 1013.8
20260901044018 74 220 0.0 2.0 0.00 0.18 0.18 89 1013.8
20260901043512 75 225 0.0 2.0 0.00 0.18 0.18 89 1013.9
20260901043032 75 221 0.0 2.0 0.00 0.18 0.18 89 1014.0
20260901042517 75 220 0.0 2.0 0.00 0.18 0.18 89 1014.0
20260901042013 75 247 0.0 2.0 0.00 0.18 0.18 89 1014.0
20260901041533 75 235 0.0 2.0 0.00 0.18 0.18 89 1013.8
20260901041018 75 227 1.0 2.0 0.00 0.18 0.18 88 1013.8
20260901040512 75 258 1.0 2.0 0.00 0.18 0.18 88 1013.8
20260901040036 75 230 1.0 2.0 0.00 0.18 0.18 88 1013.9
20260901035522 75 226 0.0 1.0 0.00 0.18 0.18 87 1013.9
20260901035014 76 196 0.0 2.0 0.00 0.18 0.18 87 1013.9
20260901034536 76 198 0.0 2.0 0.00 0.18 0.18 87 1013.8
20260901034018 76 217 0.0 2.0 0.00 0.18 0.18 87 1013.8
20260901033514 76 225 0.0 2.0 0.00 0.18 0.18 87 1014.0
20260901033049 76 226 0.0 2.0 0.00 0.18 0.18 87 1014.1
20260901032517 76 228 0.0 2.0 0.00 0.18 0.18 86 1014.1
20260901032017 76 235 0.0 2.0 0.00 0.18 0.18 86 1014.0
20260901031534 76 238 0.0 2.0 0.00 0.18 0.18 86 1014.0
20260901031019 76 209 0.0 2.0 0.00 0.18 0.18 86 1014.0
20260901030518 76 246 0.0 2.0 0.00 0.18 0.18 86 1014.0
20260901030035 76 218 0.0 2.0 0.00 0.18 0.18 86 1013.9
20260901025520 76 224 0.0 2.0 0.00 0.18 0.18 86 1013.9
20260901025017 77 234 1.0 2.0 0.00 0.18 0.18 85 1013.9
20260901024545 77 246 0.0 0.0 0.00 0.18 0.18 85 1013.9
20260901024009 77 205 0.0 2.0 0.00 0.18 0.18 84 1014.0
20260901023515 77 185 0.0 2.0 0.00 0.18 0.18 84 1014.1
20260901023035 77 225 0.0 2.0 0.00 0.18 0.18 83 1014.1
20260901022511 78 190 0.0 2.0 0.00 0.18 0.18 83 1014.1
20260901022018 78 178 0.0 2.0 0.00 0.18 0.18 83 1014.1
20260901021532 78 176 0.0 2.0 0.00 0.18 0.18 83 1014.1
20260901021014 78 235 1.0 2.0 0.00 0.18 0.18 82 1014.0
20260901020516 78 242 0.0 4.0 0.00 0.18 0.18 82 1013.9
20260901020036 78 214 1.0 4.0 0.00 0.18 0.18 82 1013.8
20260901015518 78 236 1.0 3.0 0.00 0.18 0.18 82 1013.8
20260901015004 78 252 1.0 3.0 0.00 0.18 0.18 82 1013.6
20260901014517 79 235 1.0 4.0 0.00 0.18 0.18 81 1013.4
20260901014004 79 228 0.0 4.0 0.00 0.18 0.18 81 1013.4
20260901013504 79 193 1.0 3.0 0.00 0.18 0.18 81 1013.4
20260901013023 79 217 0.0 2.0 0.00 0.18 0.18 80 1013.4
20260901012505 79 246 1.0 3.0 0.00 0.18 0.18 80 1013.5
20260901012007 79 208 1.0 3.0 0.00 0.18 0.18 80 1013.5
20260901011523 79 240 1.0 3.0 0.00 0.18 0.18 79 1013.4
20260901011003 80 232 1.0 3.0 0.00 0.18 0.18 79 1013.1
20260901010507 80 223 1.0 4.0 0.00 0.18 0.18 78 1013.1
20260901010025 80 277 2.0 4.0 0.00 0.18 0.18 78 1013.1
20260901005504 80 281 1.0 5.0 0.00 0.18 0.18 77 1013.1
20260901005009 81 236 2.0 5.0 0.00 0.18 0.18 76 1013.1
20260901004529 81 219 2.0 4.0 0.00 0.18 0.18 76 1013.0
20260901004006 81 250 2.0 4.0 0.00 0.18 0.18 75 1012.9
20260901003508 81 242 1.0 6.0 0.00 0.18 0.18 75 1012.9
20260901003027 81 209 2.0 6.0 0.00 0.18 0.18 75 1012.9
20260901002508 82 247 2.0 5.0 0.00 0.18 0.18 74 1012.9
20260901002010 82 201 1.0 5.0 0.00 0.18 0.18 74 1013.0
20260901001533 82 263 1.0 5.0 0.00 0.18 0.18 74 1013.0
20260901001003 82 249 2.0 4.0 0.00 0.18 0.18 74 1012.8
20260901000517 82 218 1.0 7.0 0.00 0.18 0.18 73 1012.9
20260901000004 82 244 2.0 7.0 0.00 0.18 0.18 73 1012.9
20260831235503 82 220 2.0 5.0 0.00 0.18 0.18 73 1012.8
20260831235019 82 239 1.0 5.0 0.00 0.18 0.18 73 1012.9
20260831234513 82 205 3.0 6.0 0.00 0.18 0.18 73 1012.9